Total_Precipitation_Accumulation
0.02 0.04 0.08 0.14 1.06 1.99 3.28 2.12 3.60 3.12 3.61 2.90 1.94 3.15 3.80 1.82 1.89 2.15 2.43 1.75 2.11 0.67 0.93 0.33 0.16 0.20 1.81 0.69 0.55 0.27 0.19 0.36 0.32 1.71 0.95 0.57 0.28 0.24 0.31 0.57 0.46 0.36 0.58 0.66 0.98 0.81 1.11 0.85 0.76 0.63 0.59 0.51 0.67 0.63 0.68 0.50 0.22 0.23 0.18 0.14 0.11 0.09 0.08 0.06 0.08 0.10 0.14 0.19 0.23 0.34 0.42 0.39 0.51 0.43 0.51 0.38 0.44 0.46 0.45 0.46 0.50 0.42 0.44 0.42 0.41 0.67 0.79 0.66 0.62 0.67 0.57 0.70 0.79 0.64 0.77 0.93 0.75
0.02 0.08 0.08 0.23 1.33 3.47 4.02 1.42 2.10 2.59 2.49 2.59 1.79 1.65 2.37 1.89 1.82 1.73 1.27 2.40 1.93 1.18 0.41 0.56 0.21 0.12 0.86 0.74 0.18 0.08 0.17 0.20 0.16 0.17 0.26 0.31 0.32 0.36 0.32 0.57 0.46 0.36 0.29 0.52 0.59 0.62 0.91 0.99 0.53 0.61 0.59 0.46 0.48 0.55 0.50 0.34 0.19 0.16 0.14 0.12 0.13 0.11 0.07 0.08 0.19 0.34 0.26 0.28 0.40 0.34 0.48 0.45 0.57 0.41 0.43 0.53 0.38 0.78 0.56 0.50 0.71 0.62 0.51 0.64 0.54 0.63 0.74 0.73 0.57 0.78 0.62 0.75 0.72 0.76 0.68 0.77 0.75
0.09 0.23 0.19 0.53 1.37 2.73 2.81 2.38 2.87 2.44 2.95 2.31 2.58 2.17 1.53 1.89 2.11 1.67 1.76 1.97 1.29 0.59 0.36 0.29 0.21 0.37 0.32 0.36 0.33 0.50 0.45 0.20 0.10 0.07 0.33 0.49 0.50 1.10 0.54 0.59 0.46 0.19 0.25 0.33 0.40 0.52 0.66 0.70 0.48 0.40 0.35 0.38 0.33 0.39 0.41 0.26 0.22 0.21 0.21 0.21 0.15 0.22 0.19 0.27 0.36 0.36 0.27 0.42 0.37 0.40 0.47 0.56 0.54 0.65 0.69 0.69 0.91 0.62 0.64 0.62 0.71 0.59 0.76 0.73 0.59 0.83 0.88 0.77 0.68 0.76 0.77 0.88 0.84 0.88 0.78 0.81 0.77
0.16 0.28 1.10 0.64 3.43 1.92 3.40 3.28 2.89 3.14 2.43 2.23 2.08 2.26 2.60 1.76 2.06 2.01 2.23 1.36 0.73 0.16 0.13 0.30 0.86 0.55 0.71 0.55 0.29 0.15 0.18 0.30 0.09 0.02 0.50 0.34 0.26 0.27 0.26 0.48 0.53 0.30 0.21 0.36 0.28 0.49 0.39 0.49 0.17 0.32 0.34 0.26 0.23 0.28 0.23 0.22 0.38 0.33 0.23 0.26 0.25 0.31 0.29 0.23 0.25 0.28 0.28 0.31 0.40 0.43 0.56 0.58 0.75 0.87 0.67 0.85 1.00 0.85 0.71 0.69 0.65 0.86 1.01 0.84 1.07 1.13 0.84 0.94 0.96 0.88 0.94 0.76 0.87 0.84 0.92 0.91 0.78
0.51 0.62 0.48 1.48 2.65 3.62 2.82 2.77 3.21 2.63 2.73 2.33 2.84 2.84 2.06 2.59 2.06 1.84 2.24 1.33 0.28 0.36 0.13 0.48 0.47 0.38 1.03 0.84 0.23 0.99 0.34 0.13 0.11 0.06 0.15 0.23 0.07 0.13 0.16 0.23 0.42 0.21 0.21 0.29 0.46 0.35 0.51 0.34 0.18 0.26 0.26 0.37 0.26 0.24 0.23 0.27 0.50 0.31 0.27 0.29 0.21 0.29 0.21 0.24 0.27 0.42 0.42 0.38 0.53 0.46 0.73 0.79 0.60 0.82 0.99 1.09 0.91 0.79 0.79 0.76 0.73 0.76 1.12 1.35 1.21 0.73 0.99 1.01 1.02 0.80 0.77 0.68 0.57 0.84 0.75 0.74 0.70
0.64 0.76 0.64 1.34 3.94 3.80 2.17 2.92 2.88 2.89 2.42 2.16 2.32 2.48 1.35 1.50 0.98 1.56 0.81 0.46 0.35 0.32 0.24 0.40 0.38 0.25 0.34 0.30 0.23 0.22 0.09 0.39 0.21 0.13 0.08 0.18 0.11 0.08 0.10 0.17 0.20 0.32 0.34 0.30 0.24 0.42 0.55 0.23 0.25 0.37 0.29 0.17 0.25 0.29 0.43 0.33 0.17 0.19 0.33 0.22 0.28 0.32 0.45 0.40 0.46 0.48 0.79 0.54 0.63 0.73 0.64 0.63 0.63 0.69 0.84 1.20 0.94 1.05 1.06 0.91 0.73 0.82 1.13 1.18 1.12 1.03 0.84 0.80 0.81 0.59 0.55 0.52 0.81 0.69 0.84 0.56 0.54
0.82 0.68 1.34 1.02 1.71 2.87 2.93 2.00 2.34 2.52 3.35 1.92 2.00 2.26 1.53 1.29 0.94 0.51 0.89 0.56 0.27 0.76 0.57 0.47 0.08 0.15 0.30 0.17 0.08 0.16 0.09 0.05 0.16 0.08 0.09 0.09 0.06 0.13 0.15 0.19 0.19 0.22 0.26 0.25 0.23 0.14 0.31 0.17 0.22 0.26 0.19 0.18 0.25 0.24 0.25 0.23 0.26 0.32 0.34 0.29 0.38 0.40 0.52 0.56 0.55 0.63 0.65 0.73 0.60 0.68 0.58 0.65 0.73 0.86 0.95 0.87 0.91 1.04 1.15 1.08 0.74 1.05 0.99 1.06 1.17 1.27 0.81 0.74 0.90 0.79 0.63 0.57 0.66 1.08 1.06 0.68 0.72
0.21 1.09 2.27 1.76 3.29 2.27 2.45 2.01 2.40 1.90 2.86 2.57 2.15 1.34 1.48 1.62 1.43 1.08 0.51 0.64 0.40 0.67 0.51 0.37 0.34 0.66 0.66 0.08 0.75 0.19 0.09 0.10 0.05 0.04 0.05 0.07 0.08 0.14 0.09 0.09 0.18 0.20 0.25 0.19 0.17 0.25 0.30 0.21 0.28 0.20 0.16 0.31 0.13 0.17 0.26 0.27 0.37 0.37 0.23 0.29 0.32 0.56 0.44 0.58 0.68 0.70 0.59 0.55 0.47 0.65 0.76 0.89 0.73 0.86 1.29 1.07 0.98 1.23 1.10 1.33 1.15 1.11 1.12 1.01 0.97 0.87 1.06 0.87 0.68 0.86 0.65 0.71 0.90 0.92 1.27 0.58 0.46
0.64 0.72 0.93 1.77 2.09 1.76 2.03 2.78 2.42 1.87 1.74 2.00 1.65 1.53 1.96 1.76 1.08 1.11 1.09 1.15 0.63 0.71 0.37 0.42 0.30 0.59 0.42 0.28 0.27 0.27 0.17 0.05 0.03 0.01 0.04 0.05 0.07 0.08 0.10 0.08 0.10 0.17 0.15 0.16 0.21 0.30 0.29 0.18 0.19 0.14 0.16 0.19 0.18 0.13 0.20 0.28 0.23 0.33 0.47 0.35 0.42 0.42 0.46 0.42 0.64 0.56 0.50 0.49 0.56 0.54 0.97 1.00 0.98 0.92 1.11 1.04 1.32 1.21 1.08 1.12 1.00 0.91 1.15 1.04 0.97 1.06 0.91 0.88 0.95 0.83 0.79 0.77 0.85 0.99 0.85 0.50 0.43
1.33 0.98 3.61 1.92 1.71 2.73 2.14 1.84 2.23 2.80 2.57 2.85 2.12 1.99 1.89 1.59 1.30 2.38 0.72 0.81 0.68 0.56 0.30 0.43 0.19 0.89 0.34 0.26 0.29 0.22 0.23 0.05 0.03 0.04 0.07 0.04 0.05 0.05 0.05 0.06 0.07 0.12 0.17 0.22 0.18 0.28 0.15 0.39 0.14 0.22 0.20 0.14 0.27 0.22 0.32 0.17 0.37 0.38 0.41 0.37 0.47 0.49 0.52 0.51 0.52 0.42 0.50 0.68 0.80 0.75 0.87 0.94 1.01 1.22 1.25 1.14 1.18 1.20 1.06 1.04 0.91 0.91 0.75 1.13 0.92 0.96 0.90 0.65 0.49 0.67 0.81 0.84 1.07 0.84 0.84 0.55 0.49
1.66 0.90 1.78 2.10 2.05 1.99 1.97 1.77 2.11 2.29 2.32 2.76 2.22 1.95 2.89 2.38 1.26 0.78 1.02 1.00 0.87 0.65 0.15 0.16 0.51 0.25 0.22 0.38 0.42 0.23 0.08 0.02 0.02 0.11 0.17 0.08 0.04 0.06 0.05 0.06 0.09 0.08 0.12 0.16 0.15 0.31 0.37 0.33 0.23 0.12 0.25 0.31 0.24 0.25 0.32 0.34 0.58 0.53 0.51 0.57 0.42 0.42 0.52 0.50 0.64 0.49 0.64 0.79 0.80 0.69 0.81 0.80 1.14 1.30 0.89 1.08 0.91 0.83 0.99 1.09 0.75 0.65 0.97 0.86 0.99 0.94 0.73 0.56 0.61 0.72 0.52 0.89 0.73 0.92 0.83 0.64 0.49
2.38 1.69 2.12 2.60 2.51 1.72 1.62 1.87 1.79 1.93 3.02 2.90 3.13 3.03 2.13 2.03 2.07 1.03 0.89 1.09 0.91 0.31 0.25 0.19 0.61 0.24 0.31 0.18 0.46 0.57 0.13 0.05 0.03 0.03 0.06 0.05 0.05 0.05 0.03 0.07 0.10 0.09 0.09 0.14 0.22 0.34 0.20 0.34 0.35 0.48 0.29 0.33 0.18 0.21 0.26 0.50 0.40 0.64 0.51 0.48 0.58 0.49 0.39 0.61 0.51 0.78 0.95 1.05 0.87 0.98 0.80 0.94 0.88 1.00 0.95 0.79 0.80 0.69 0.84 0.90 0.79 0.88 0.85 0.84 0.78 0.55 0.61 0.78 0.94 0.75 0.93 0.89 0.94 0.83 0.82 0.57 0.61
1.71 2.07 3.18 1.97 1.87 1.89 1.72 1.66 2.49 2.14 2.78 4.86 3.20 3.41 2.88 2.20 1.72 1.66 1.41 0.84 0.37 0.39 0.25 0.56 0.13 0.26 0.59 0.27 0.47 0.26 0.20 0.10 0.05 0.03 0.05 0.03 0.04 0.07 0.04 0.06 0.12 0.12 0.06 0.15 0.29 0.26 0.23 0.34 0.28 0.42 0.38 0.41 0.28 0.28 0.24 0.61 0.43 0.52 0.54 0.67 0.62 0.62 0.52 0.42 0.40 0.62 0.86 0.82 1.10 0.95 1.04 1.05 1.07 0.63 0.62 0.79 1.05 0.68 0.58 0.73 0.94 0.95 1.04 0.88 0.73 0.42 0.55 0.64 0.89 0.90 1.06 1.02 1.14 1.11 0.91 0.61 0.64
0.95 1.82 2.13 2.09 1.23 1.59 1.97 2.39 1.73 2.59 3.37 3.68 3.83 2.30 2.64 2.61 1.64 1.47 0.88 0.69 1.32 1.93 0.23 0.16 0.28 0.48 0.47 0.17 1.07 0.40 0.20 0.08 0.07 0.05 0.04 0.06 0.08 0.05 0.05 0.06 0.06 0.09 0.12 0.12 0.18 0.20 0.22 0.22 0.29 0.31 0.41 0.39 0.43 0.38 0.50 0.65 0.51 0.72 0.88 0.79 0.64 0.57 0.62 0.53 0.52 0.67 0.73 0.73 1.06 1.10 0.93 1.07 1.04 0.98 1.09 0.84 0.66 0.81 0.56 0.62 0.93 1.18 1.06 0.69 0.56 0.44 0.46 0.73 0.75 0.99 1.00 1.18 1.43 1.18 1.27 0.91 0.78
0.99 1.34 1.35 1.59 1.52 1.21 1.05 2.67 2.65 2.04 3.31 4.13 3.99 2.43 1.87 2.23 1.61 1.46 1.16 0.73 1.25 0.95 0.51 0.09 0.33 0.26 0.47 0.10 0.44 0.16 0.14 0.09 0.07 0.04 0.07 0.09 0.09 0.06 0.04 0.07 0.09 0.11 0.14 0.20 0.26 0.21 0.21 0.27 0.29 0.25 0.22 0.40 0.24 0.43 0.79 0.93 0.77 0.94 0.75 0.76 0.68 0.96 0.70 0.65 0.58 0.83 0.94 0.90 0.96 1.55 1.59 1.34 1.32 1.00 0.97 1.03 0.84 0.59 0.73 0.54 0.97 0.76 0.65 0.63 0.38 0.30 0.49 0.85 1.12 1.13 0.97 0.93 1.07 1.16 1.41 1.04 1.13
0.75 1.27 1.45 2.17 2.08 2.12 1.65 1.95 1.62 2.11 3.34 3.90 3.67 2.91 2.10 1.38 1.67 2.35 1.80 2.31 0.38 0.12 0.21 0.39 0.09 0.59 0.21 0.07 0.04 0.06 0.05 0.08 0.06 0.06 0.08 0.13 0.10 0.07 0.11 0.12 0.11 0.12 0.15 0.18 0.17 0.23 0.24 0.28 0.50 0.31 0.34 0.19 0.39 0.48 0.57 0.71 0.67 0.70 0.61 0.79 0.55 0.70 0.52 0.58 0.83 0.94 1.14 1.21 1.28 1.44 1.66 1.10 1.44 1.26 1.16 0.79 0.73 0.74 0.63 0.37 0.49 0.59 0.59 0.43 0.24 0.29 0.33 0.46 0.94 0.82 1.19 1.11 1.12 1.08 1.08 1.25 1.40
0.49 0.59 1.64 1.45 2.21 1.76 1.68 1.63 0.64 2.40 2.79 3.51 2.80 2.91 1.73 1.71 1.36 2.52 1.62 1.16 0.72 0.36 0.76 0.21 0.18 0.06 0.11 0.10 0.06 0.04 0.05 0.04 0.05 0.11 0.09 0.22 0.18 0.27 0.29 0.29 0.20 0.25 0.26 0.22 0.22 0.22 0.38 0.36 0.45 0.34 0.28 0.23 0.32 0.43 0.41 0.51 0.44 0.59 0.69 0.43 0.55 0.45 0.72 0.82 1.01 1.10 1.40 1.36 1.32 1.16 0.92 0.89 1.15 1.35 1.04 0.68 0.78 0.60 0.35 0.36 0.42 0.45 0.42 0.33 0.32 0.31 0.30 0.44 0.62 1.03 1.06 0.51 0.67 0.98 1.17 0.74 0.86
0.63 1.66 1.47 2.34 1.74 1.60 1.56 1.77 1.02 2.96 3.25 2.30 2.57 2.20 1.53 0.92 0.81 1.56 1.40 1.89 1.50 0.76 0.76 0.18 0.24 0.11 0.06 0.03 0.05 0.03 0.04 0.04 0.08 0.09 0.13 0.16 0.15 0.26 0.24 0.22 0.22 0.23 0.21 0.27 0.23 0.25 0.21 0.21 0.31 0.27 0.28 0.21 0.33 0.33 0.57 0.52 0.61 0.77 0.88 0.74 0.83 0.72 0.78 0.79 0.95 0.98 1.65 1.25 1.08 1.10 1.06 1.10 1.03 1.18 0.90 0.88 0.62 0.53 0.50 0.43 0.31 0.33 0.45 0.42 0.50 0.34 0.27 0.38 0.60 0.65 0.58 0.51 0.53 0.46 0.43 0.39 0.37
0.68 0.88 1.71 2.53 0.97 1.58 0.99 0.95 1.13 1.54 2.47 2.69 2.50 1.26 1.94 1.29 1.08 0.79 1.09 0.94 0.77 0.78 0.50 0.34 0.21 0.07 0.05 0.04 0.04 0.03 0.04 0.07 0.07 0.03 0.05 0.05 0.10 0.09 0.08 0.12 0.13 0.17 0.21 0.21 0.22 0.24 0.13 0.19 0.25 0.28 0.26 0.29 0.28 0.29 0.54 0.40 0.49 0.67 0.51 0.47 0.47 0.58 0.87 0.72 0.86 0.77 0.84 0.69 0.64 0.70 0.98 1.08 0.84 0.95 0.92 0.69 0.82 0.70 0.24 0.31 0.35 0.41 0.43 0.46 0.38 0.30 0.25 0.34 0.38 0.45 0.52 0.35 0.44 0.26 0.50 0.29 0.19
0.54 0.53 1.49 1.80 0.84 0.90 0.58 1.03 1.42 1.00 1.66 1.71 1.36 1.83 1.94 1.76 1.89 1.21 1.61 0.64 0.99 0.61 0.34 0.21 0.11 0.09 0.09 0.06 0.03 0.03 0.03 0.04 0.02 0.07 0.04 0.07 0.03 0.02 0.04 0.06 0.08 0.08 0.09 0.10 0.12 0.23 0.13 0.15 0.17 0.20 0.15 0.18 0.55 0.67 0.45 0.46 0.64 0.60 0.37 0.42 0.28 0.50 0.84 1.16 1.14 0.92 0.68 0.65 0.65 0.87 0.71 0.64 0.64 0.72 0.51 0.47 0.50 0.31 0.37 0.35 0.34 0.35 0.31 0.28 0.31 0.38 0.21 0.26 0.29 0.25 0.40 0.46 0.52 0.41 0.32 0.24 0.17
0.56 0.48 0.83 1.31 0.82 0.86 0.80 0.95 2.10 1.82 1.43 1.61 1.71 1.66 1.98 1.57 2.00 1.68 1.14 1.13 1.53 1.31 0.37 0.23 0.09 0.11 0.04 0.02 0.04 0.03 0.04 0.04 0.06 0.05 0.04 0.03 0.04 0.02 0.01 0.03 0.07 0.06 0.08 0.07 0.11 0.17 0.14 0.13 0.13 0.17 0.14 0.21 0.57 0.25 0.43 0.64 0.82 0.63 0.37 0.57 0.56 0.70 0.88 0.80 0.94 0.61 0.67 0.69 0.49 0.76 0.70 0.69 0.53 0.46 0.43 0.58 0.44 0.48 0.53 0.43 0.53 0.66 0.60 0.75 0.42 0.88 0.93 0.81 0.90 0.79 0.84 0.40 0.38 0.25 0.31 0.16 0.06
0.14 0.55 0.82 0.28 0.60 0.62 0.70 0.88 1.93 1.97 2.34 2.15 1.95 1.89 2.10 1.48 1.44 1.96 0.74 1.48 1.75 1.23 0.88 0.55 0.22 0.03 0.02 0.01 0.02 0.02 0.02 0.03 0.05 0.03 0.03 0.02 0.01 0.04 0.02 0.02 0.06 0.05 0.08 0.09 0.09 0.10 0.15 0.22 0.12 0.16 0.12 0.19 0.42 1.21 0.31 0.36 0.75 0.50 0.73 0.57 0.58 0.61 1.00 0.56 0.68 0.61 0.48 0.69 1.36 0.98 0.48 0.85 0.75 0.71 0.61 0.60 0.53 0.60 0.67 0.65 0.59 0.35 0.52 0.63 0.51 0.76 0.92 0.79 0.78 0.90 0.48 0.15 0.20 0.21 0.09 0.08 0.03
0.24 0.22 0.14 0.18 0.24 1.10 0.60 0.81 1.04 1.32 1.81 2.83 2.80 2.16 1.14 1.26 1.72 1.19 0.64 2.10 1.64 1.10 0.48 0.48 0.20 0.04 0.03 0.02 0.02 0.02 0.01 0.03 0.04 0.03 0.01 0.01 0.01 0.01 0.01 0.01 0.04 0.06 0.05 0.03 0.04 0.08 0.06 0.10 0.13 0.10 0.13 0.34 0.20 0.23 0.44 0.67 0.75 0.50 0.35 0.32 0.62 0.32 0.49 0.63 0.67 0.38 0.59 0.78 0.89 0.69 0.67 0.55 0.57 0.48 0.41 0.34 0.57 0.46 0.35 0.49 0.38 0.52 0.46 0.47 0.46 0.83 0.41 0.78 0.88 0.27 0.42 0.16 0.14 0.27 0.21 0.06 0.07
0.16 0.94 0.18 0.25 0.42 0.39 0.37 0.65 1.15 1.46 2.10 3.34 2.54 1.29 1.94 1.35 1.86 1.51 1.41 1.14 1.53 0.73 0.56 0.24 0.23 0.13 0.02 0.02 0.03 0.02 0.01 0.02 0.01 0.03 0.01 0.01 0.00 0.00 0.00 0.02 0.01 0.02 0.03 0.02 0.04 0.19 0.05 0.07 0.12 0.11 0.26 0.17 0.16 0.33 0.69 0.93 0.67 0.39 0.23 0.30 0.52 0.45 0.62 0.71 0.45 0.47 0.43 0.68 0.52 1.03 0.72 0.69 0.28 0.82 0.48 0.29 0.18 0.25 0.15 0.51 0.74 0.53 0.70 0.90 0.95 0.89 0.32 0.43 0.25 0.36 0.14 0.11 0.07 0.11 0.11 0.04 0.06
0.14 0.33 0.13 0.16 0.19 0.54 0.35 0.40 1.10 1.29 2.40 2.60 1.83 1.66 2.20 1.75 2.10 1.14 1.32 0.86 0.45 0.69 0.33 0.26 0.16 0.11 0.01 0.03 0.01 0.02 0.04 0.04 0.02 0.03 0.00 0.00 0.00 0.01 0.01 0.00 0.01 0.01 0.02 0.03 0.03 0.05 0.07 0.03 0.08 0.09 0.08 0.08 0.30 0.16 0.24 0.27 0.25 0.26 0.23 0.31 0.61 0.35 0.76 0.35 0.20 0.24 0.29 0.24 0.33 0.56 0.72 0.35 0.30 0.21 0.28 0.33 0.09 0.31 0.33 0.24 0.44 0.27 0.29 0.25 0.24 0.26 0.17 0.17 0.17 0.32 0.26 0.09 0.12 0.07 0.08 0.05 0.07
0.06 0.07 0.31 0.43 0.16 0.26 0.65 0.48 0.94 1.40 1.85 2.31 1.94 3.21 2.33 1.69 2.25 1.59 1.53 0.98 0.57 0.36 0.32 0.21 0.08 0.07 0.02 0.02 0.01 0.01 0.02 0.02 0.03 0.01 0.00 0.01 0.01 0.01 0.00 0.00 0.00 0.02 0.01 0.02 0.02 0.03 0.05 0.04 0.03 0.06 0.10 0.19 0.11 0.39 0.27 0.31 0.26 0.23 0.14 0.15 0.14 0.17 0.11 0.14 0.14 0.22 0.21 0.25 0.34 0.60 0.76 0.37 0.23 0.19 0.15 0.16 0.26 0.10 0.28 0.31 0.32 0.24 0.36 0.19 0.27 0.30 0.41 0.28 0.21 0.09 0.07 0.13 0.07 0.09 0.12 0.06 0.07
0.00 0.05 0.11 0.99 0.35 0.18 0.51 0.49 1.30 1.45 1.73 2.08 2.55 1.30 2.16 1.29 0.90 1.52 1.25 0.89 0.60 0.48 0.22 0.37 0.26 0.05 0.02 0.00 0.01 0.02 0.01 0.02 0.00 0.00 0.01 0.00 0.00 0.00 0.00 0.00 0.00 0.00 0.00 0.01 0.02 0.02 0.02 0.04 0.04 0.05 0.23 0.26 0.19 0.20 0.28 0.16 0.13 0.24 0.13 0.08 0.17 0.08 0.21 0.12 0.17 0.32 0.14 0.36 0.33 0.40 0.49 0.44 0.11 0.13 0.11 0.18 0.34 0.09 0.60 0.49 0.17 0.16 0.09 0.15 0.20 0.29 0.16 0.08 0.14 0.22 0.18 0.07 0.09 0.15 0.10 0.08 0.06
0.02 0.01 0.15 0.54 0.45 0.26 0.61 0.79 0.60 0.90 0.93 1.75 3.08 1.98 1.61 1.78 1.21 1.57 1.33 0.59 0.52 0.27 0.11 0.15 0.08 0.08 0.03 0.03 0.01 0.00 0.01 0.02 0.00 0.00 0.01 0.00 0.00 0.00 0.00 0.00 0.00 0.00 0.00 0.01 0.01 0.01 0.03 0.01 0.04 0.03 0.06 0.07 0.16 0.27 0.26 0.13 0.10 0.12 0.11 0.08 0.08 0.04 0.06 0.17 0.30 0.14 0.08 0.11 0.15 0.33 0.28 0.18 0.21 0.17 0.14 0.07 0.49 0.21 0.35 0.42 0.22 0.20 0.10 0.20 0.33 0.11 0.18 0.15 0.14 0.18 0.17 0.17 0.13 0.11 0.10 0.07 0.05
0.00 0.12 0.37 0.81 0.94 0.77 0.78 0.98 0.78 0.81 0.73 1.54 1.07 1.87 2.50 1.24 1.29 1.34 1.07 1.01 0.67 0.26 0.08 0.08 0.06 0.02 0.00 0.00 0.01 0.00 0.01 0.03 0.01 0.00 0.00 0.00 0.00 0.00 0.00 0.00 0.00 0.00 0.00 0.00 0.00 0.01 0.02 0.02 0.02 0.02 0.03 0.03 0.08 0.25 0.07 0.10 0.11 0.05 0.08 0.06 0.05 0.08 0.14 0.08 0.06 0.06 0.08 0.10 0.14 0.09 0.15 0.17 0.18 0.11 0.17 0.35 0.07 0.21 0.17 0.37 0.24 0.06 0.05 0.15 0.20 0.16 0.13 0.14 0.14 0.15 0.27 0.24 0.19 0.14 0.04 0.06 0.07
0.00 0.01 1.12 0.40 1.13 0.84 0.98 1.63 1.86 0.53 1.02 0.67 1.43 1.96 1.37 1.48 1.39 1.48 1.60 0.93 0.52 0.33 0.09 0.13 0.09 0.06 0.03 0.00 0.00 0.00 0.01 0.01 0.00 0.00 0.00 0.00 0.00 0.00 0.00 0.00 0.00 0.00 0.00 0.00 0.00 0.00 0.01 0.01 0.01 0.02 0.02 0.07 0.05 0.07 0.04 0.05 0.04 0.03 0.03 0.07 0.10 0.12 0.16 0.15 0.09 0.08 0.13 0.09 0.06 0.04 0.10 0.13 0.09 0.18 0.31 0.31 0.15 0.23 0.20 0.23 0.32 0.18 0.07 0.10 0.10 0.09 0.13 0.20 0.14 0.28 0.18 0.16 0.18 0.16 0.08 0.07 0.10
0.05 0.02 0.03 0.28 0.27 0.91 1.22 1.91 1.29 1.15 0.65 1.20 1.21 1.61 1.71 1.59 1.63 1.37 1.35 0.93 0.56 0.42 0.32 0.11 0.18 0.06 0.02 0.00 0.00 0.00 0.00 0.00 0.00 0.00 0.00 0.00 0.01 0.00 0.00 0.00 0.00 0.00 0.00 0.00 0.00 0.00 0.00 0.00 0.01 0.01 0.02 0.03 0.04 0.05 0.04 0.02 0.02 0.02 0.02 0.03 0.07 0.18 0.15 0.12 0.12 0.05 0.04 0.04 0.03 0.03 0.10 0.13 0.10 0.29 0.28 0.22 0.11 0.37 0.11 0.12 0.26 0.17 0.19 0.17 0.10 0.10 0.12 0.22 0.14 0.13 0.10 0.22 0.14 0.12 0.12 0.05 0.05
0.02 0.04 0.11 0.09 0.18 0.78 1.50 1.19 1.46 0.67 0.46 1.07 0.66 1.35 1.71 1.37 1.19 1.21 0.69 0.73 0.79 0.91 0.53 0.15 0.20 0.18 0.03 0.01 0.01 0.01 0.01 0.00 0.00 0.00 0.00 0.00 0.00 0.00 0.00 0.00 0.00 0.00 0.00 0.00 0.00 0.00 0.00 0.01 0.00 0.00 0.01 0.01 0.02 0.02 0.03 0.01 0.02 0.02 0.03 0.02 0.08 0.11 0.05 0.13 0.20 0.07 0.04 0.04 0.01 0.03 0.09 0.15 0.18 0.17 0.32 0.37 0.20 0.18 0.18 0.12 0.15 0.16 0.08 0.16 0.14 0.11 0.17 0.21 0.21 0.28 0.16 0.29 0.16 0.18 0.08 0.04 0.05
0.06 0.07 0.17 0.08 0.12 0.51 0.56 0.76 1.01 1.01 0.47 0.73 1.29 1.66 1.28 1.82 0.99 1.22 1.11 1.16 1.01 0.62 0.84 0.75 0.19 0.43 0.14 0.05 0.01 0.02 0.01 0.00 0.01 0.00 0.00 0.00 0.00 0.00 0.00 0.00 0.00 0.00 0.00 0.01 0.00 0.00 0.00 0.00 0.02 0.00 0.00 0.00 0.01 0.01 0.01 0.02 0.02 0.02 0.02 0.01 0.03 0.03 0.13 0.04 0.10 0.04 0.09 0.02 0.08 0.06 0.09 0.13 0.20 0.31 0.22 0.23 0.18 0.19 0.18 0.10 0.19 0.20 0.20 0.15 0.12 0.30 0.12 0.12 0.46 0.25 0.21 0.13 0.11 0.20 0.15 0.05 0.07
0.05 0.01 0.03 0.02 0.10 0.26 0.51 0.54 0.36 0.96 0.43 0.44 0.47 1.17 1.49 1.21 1.04 1.71 1.07 1.00 0.99 1.43 0.77 0.39 0.53 0.29 0.07 0.03 0.02 0.02 0.02 0.00 0.02 0.00 0.00 0.00 0.00 0.00 0.00 0.00 0.00 0.00 0.00 0.00 0.00 0.00 0.00 0.00 0.00 0.00 0.00 0.01 0.01 0.02 0.01 0.02 0.02 0.02 0.03 0.02 0.04 0.02 0.07 0.09 0.03 0.14 0.12 0.08 0.11 0.21 0.17 0.16 0.19 0.22 0.23 0.27 0.30 0.29 0.16 0.18 0.26 0.28 0.20 0.11 0.30 0.23 0.46 0.26 0.26 0.20 0.33 0.18 0.11 0.11 0.13 0.12 0.07
0.01 0.00 0.03 0.04 0.14 0.36 0.40 0.33 0.58 0.24 0.20 0.46 0.84 0.60 0.90 0.91 0.98 1.12 0.91 1.32 1.22 0.60 0.54 0.54 0.17 0.60 0.22 0.01 0.08 0.03 0.02 0.03 0.02 0.01 0.00 0.00 0.00 0.00 0.00 0.00 0.00 0.00 0.00 0.00 0.00 0.00 0.01 0.01 0.00 0.01 0.01 0.01 0.01 0.01 0.01 0.02 0.02 0.04 0.06 0.06 0.03 0.03 0.07 0.08 0.06 0.09 0.09 0.09 0.14 0.11 0.08 0.29 0.25 0.35 0.32 0.41 0.27 0.31 0.22 0.14 0.09 0.18 0.08 0.14 0.23 0.37 0.32 0.28 0.22 0.22 0.30 0.21 0.12 0.14 0.14 0.09 0.11
0.00 0.01 0.02 0.07 0.20 0.60 0.36 0.50 0.27 0.11 0.39 0.57 0.79 0.90 1.35 0.83 0.80 1.09 1.05 1.23 0.86 1.19 1.34 0.85 0.66 0.57 0.44 0.32 0.22 0.04 0.01 0.02 0.02 0.01 0.00 0.00 0.00 0.00 0.00 0.00 0.00 0.00 0.00 0.00 0.00 0.01 0.00 0.00 0.01 0.01 0.01 0.01 0.01 0.02 0.02 0.02 0.02 0.02 0.03 0.03 0.04 0.04 0.03 0.05 0.04 0.04 0.03 0.03 0.13 0.18 0.09 0.18 0.12 0.21 0.17 0.13 0.22 0.21 0.13 0.11 0.15 0.18 0.10 0.15 0.31 0.32 0.23 0.31 0.22 0.35 0.25 0.18 0.23 0.16 0.10 0.09 0.10
0.00 0.00 0.01 0.03 0.09 0.18 0.14 0.30 0.41 0.62 0.72 0.74 1.19 2.23 1.33 1.10 0.75 0.64 0.38 0.76 0.75 0.90 0.96 0.57 0.79 0.54 0.32 0.45 0.14 0.02 0.05 0.03 0.00 0.01 0.01 0.02 0.00 0.00 0.00 0.00 0.00 0.00 0.00 0.00 0.01 0.01 0.00 0.00 0.00 0.00 0.01 0.01 0.03 0.04 0.04 0.02 0.05 0.03 0.03 0.03 0.02 0.03 0.01 0.02 0.02 0.01 0.02 0.10 0.08 0.12 0.05 0.11 0.08 0.09 0.07 0.08 0.07 0.11 0.18 0.25 0.19 0.22 0.20 0.22 0.27 0.32 0.22 0.30 0.31 0.22 0.21 0.14 0.12 0.19 0.27 0.19 0.05
0.00 0.00 0.02 0.02 0.01 0.13 0.03 0.26 0.10 0.62 0.72 1.35 1.46 1.58 1.15 1.47 1.72 1.16 0.82 0.67 0.86 0.78 1.05 0.75 0.32 0.43 0.43 0.15 0.28 0.45 0.08 0.03 0.02 0.02 0.01 0.00 0.00 0.00 0.00 0.00 0.00 0.00 0.00 0.00 0.00 0.01 0.00 0.01 0.00 0.00 0.01 0.01 0.01 0.01 0.02 0.02 0.01 0.01 0.02 0.02 0.03 0.07 0.05 0.03 0.04 0.03 0.03 0.09 0.03 0.02 0.03 0.05 0.04 0.04 0.07 0.09 0.13 0.12 0.12 0.14 0.13 0.30 0.26 0.19 0.16 0.25 0.21 0.19 0.12 0.33 0.20 0.36 0.09 0.18 0.22 0.15 0.09
0.00 0.01 0.02 0.00 0.04 0.01 0.03 0.18 0.04 0.67 0.39 0.82 0.94 1.42 1.13 1.51 1.57 1.89 1.18 0.47 0.64 0.73 0.76 0.59 0.57 0.76 0.91 0.54 0.35 0.22 0.24 0.06 0.03 0.02 0.01 0.01 0.01 0.00 0.00 0.00 0.00 0.00 0.00 0.00 0.00 0.01 0.00 0.02 0.00 0.01 0.01 0.01 0.00 0.01 0.01 0.02 0.01 0.01 0.02 0.03 0.04 0.08 0.03 0.04 0.08 0.09 0.05 0.07 0.03 0.02 0.06 0.04 0.04 0.07 0.07 0.10 0.14 0.21 0.16 0.24 0.17 0.23 0.19 0.08 0.09 0.14 0.14 0.12 0.23 0.15 0.18 0.19 0.18 0.16 0.11 0.10 0.09
0.00 0.01 0.00 0.01 0.01 0.02 0.22 0.34 0.20 0.75 0.45 1.52 0.95 1.31 1.88 2.51 1.52 1.85 1.66 1.44 1.46 1.42 1.90 2.38 1.19 1.44 0.74 0.49 0.37 0.25 0.05 0.26 0.22 0.02 0.01 0.01 0.00 0.00 0.00 0.00 0.00 0.00 0.00 0.00 0.00 0.00 0.01 0.02 0.00 0.01 0.01 0.01 0.01 0.01 0.00 0.01 0.02 0.02 0.02 0.02 0.13 0.05 0.09 0.06 0.11 0.07 0.10 0.07 0.07 0.04 0.06 0.08 0.13 0.16 0.11 0.16 0.20 0.07 0.08 0.11 0.13 0.12 0.14 0.15 0.20 0.13 0.14 0.25 0.10 0.20 0.21 0.23 0.11 0.17 0.19 0.13 0.04
0.00 0.00 0.00 0.00 0.00 0.02 0.01 0.12 0.14 0.69 0.27 0.42 0.67 0.73 1.25 0.98 1.17 1.39 1.55 2.59 2.62 2.24 1.64 2.49 1.83 1.02 0.55 0.43 0.32 0.21 0.35 0.11 0.06 0.01 0.01 0.00 0.00 0.00 0.00 0.00 0.00 0.00 0.00 0.00 0.00 0.00 0.01 0.02 0.02 0.00 0.01 0.01 0.01 0.01 0.01 0.01 0.02 0.03 0.05 0.06 0.05 0.05 0.04 0.06 0.05 0.06 0.05 0.05 0.03 0.04 0.04 0.08 0.11 0.04 0.04 0.03 0.02 0.02 0.04 0.09 0.12 0.18 0.10 0.15 0.13 0.12 0.15 0.22 0.17 0.21 0.09 0.13 0.21 0.24 0.14 0.08 0.07
0.01 0.00 0.00 0.00 0.00 0.00 0.02 0.02 0.09 0.24 0.25 0.06 0.10 0.25 0.43 0.45 0.39 0.43 1.19 1.84 1.15 1.03 0.73 0.78 1.14 0.73 0.45 0.22 0.30 0.30 0.31 0.19 0.12 0.11 0.04 0.03 0.01 0.00 0.00 0.00 0.00 0.00 0.00 0.00 0.00 0.00 0.00 0.01 0.04 0.01 0.01 0.01 0.01 0.01 0.01 0.02 0.04 0.07 0.07 0.09 0.14 0.09 0.10 0.05 0.08 0.06 0.06 0.05 0.03 0.03 0.06 0.03 0.06 0.05 0.01 0.02 0.02 0.03 0.03 0.09 0.11 0.11 0.10 0.12 0.14 0.18 0.14 0.14 0.09 0.17 0.12 0.10 0.14 0.10 0.17 0.05 0.04
0.00 0.02 0.00 0.00 0.00 0.00 0.01 0.01 0.01 0.08 0.09 0.11 0.06 0.35 0.50 0.40 0.69 0.36 0.64 0.87 0.61 1.07 0.92 0.98 0.72 0.75 0.55 0.16 0.18 0.19 0.15 0.16 0.10 0.11 0.08 0.10 0.04 0.01 0.00 0.00 0.00 0.00 0.00 0.00 0.00 0.00 0.00 0.00 0.01 0.04 0.00 0.01 0.01 0.01 0.01 0.01 0.03 0.03 0.05 0.06 0.05 0.05 0.02 0.02 0.06 0.06 0.04 0.02 0.03 0.02 0.02 0.01 0.01 0.00 0.00 0.00 0.04 0.02 0.05 0.08 0.05 0.09 0.13 0.12 0.07 0.14 0.08 0.12 0.13 0.08 0.04 0.06 0.09 0.16 0.07 0.11 0.02
0.00 0.00 0.00 0.00 0.00 0.02 0.00 0.00 0.00 0.01 0.00 0.05 0.03 0.01 0.33 0.46 0.27 0.34 0.59 0.48 0.72 1.02 0.95 0.73 0.49 0.49 0.78 0.27 0.18 0.16 0.17 0.09 0.11 0.07 0.07 0.03 0.04 0.03 0.01 0.00 0.00 0.00 0.00 0.00 0.00 0.00 0.00 0.00 0.00 0.02 0.06 0.00 0.02 0.00 0.01 0.01 0.01 0.01 0.01 0.02 0.01 0.03 0.01 0.02 0.05 0.06 0.02 0.05 0.06 0.02 0.03 0.01 0.01 0.01 0.01 0.06 0.02 0.03 0.02 0.07 0.05 0.05 0.16 0.06 0.08 0.10 0.13 0.11 0.12 0.10 0.05 0.05 0.06 0.07 0.14 0.09 0.05
0.01 0.00 0.00 0.00 0.00 0.00 0.00 0.01 0.01 0.00 0.01 0.15 0.03 0.01 0.05 0.06 0.42 0.25 0.61 0.89 0.78 1.25 0.69 0.54 0.47 0.32 0.48 0.40 0.40 0.75 0.59 0.66 0.45 0.18 0.09 0.04 0.06 0.04 0.04 0.01 0.01 0.00 0.00 0.00 0.00 0.00 0.00 0.00 0.00 0.00 0.00 0.05 0.01 0.01 0.00 0.00 0.00 0.01 0.01 0.01 0.01 0.01 0.05 0.02 0.05 0.02 0.03 0.02 0.04 0.01 0.03 0.02 0.01 0.02 0.01 0.01 0.01 0.03 0.05 0.07 0.05 0.06 0.07 0.09 0.05 0.09 0.13 0.10 0.08 0.13 0.07 0.06 0.05 0.05 0.04 0.07 0.08
0.00 0.00 0.00 0.00 0.00 0.01 0.00 0.02 0.03 0.14 0.02 0.02 0.01 0.01 0.06 0.28 0.52 0.51 0.87 0.89 0.60 0.67 0.56 0.42 0.40 0.43 0.39 0.56 0.48 0.44 0.26 0.45 0.40 0.14 0.13 0.08 0.07 0.04 0.06 0.03 0.02 0.01 0.00 0.00 0.00 0.00 0.00 0.00 0.00 0.00 0.01 0.01 0.02 0.01 0.01 0.00 0.00 0.00 0.00 0.00 0.00 0.01 0.03 0.01 0.04 0.03 0.03 0.02 0.03 0.02 0.03 0.03 0.01 0.06 0.03 0.01 0.02 0.02 0.02 0.08 0.05 0.05 0.07 0.08 0.04 0.17 0.07 0.12 0.06 0.05 0.06 0.06 0.10 0.11 0.05 0.05 0.07
0.00 0.00 0.01 0.00 0.00 0.01 0.06 0.36 0.36 0.20 0.01 0.00 0.01 0.01 0.01 0.28 0.50 0.40 0.29 0.40 0.19 0.22 0.52 0.56 0.70 0.41 0.21 0.34 0.47 0.28 0.26 0.25 0.22 0.14 0.13 0.06 0.06 0.12 0.05 0.08 0.01 0.00 0.01 0.00 0.00 0.02 0.00 0.01 0.00 0.00 0.00 0.01 0.05 0.01 0.01 0.00 0.00 0.00 0.00 0.00 0.00 0.01 0.01 0.01 0.02 0.04 0.03 0.04 0.06 0.07 0.05 0.03 0.03 0.02 0.01 0.03 0.01 0.02 0.01 0.06 0.05 0.03 0.10 0.09 0.03 0.08 0.10 0.04 0.03 0.02 0.02 0.09 0.06 0.11 0.05 0.16 0.04
0.00 0.00 0.00 0.01 0.02 0.23 0.59 0.63 0.11 0.10 0.01 0.01 0.02 0.00 0.02 0.15 0.39 0.44 0.15 0.10 0.11 0.12 0.25 0.15 0.49 0.57 0.49 0.15 0.36 0.41 0.28 0.33 0.55 0.62 0.56 0.25 0.09 0.13 0.02 0.05 0.02 0.01 0.00 0.00 0.01 0.00 0.03 0.01 0.00 0.00 0.00 0.00 0.00 0.03 0.00 0.01 0.00 0.00 0.00 0.00 0.00 0.00 0.00 0.00 0.01 0.01 0.05 0.01 0.01 0.01 0.02 0.02 0.04 0.03 0.01 0.02 0.04 0.01 0.01 0.01 0.03 0.04 0.05 0.06 0.05 0.06 0.08 0.02 0.06 0.03 0.05 0.04 0.04 0.04 0.06 0.08 0.07
0.00 0.01 0.00 0.00 0.08 0.10 0.14 0.13 0.16 0.02 0.02 0.08 0.01 0.00 0.05 0.02 0.04 0.35 0.08 0.04 0.03 0.07 0.21 0.09 0.09 0.28 0.37 0.32 0.20 0.23 0.31 0.41 0.45 0.40 0.26 0.13 0.09 0.07 0.11 0.02 0.01 0.02 0.01 0.00 0.00 0.00 0.01 0.01 0.01 0.00 0.00 0.00 0.00 0.01 0.00 0.00 0.00 0.00 0.00 0.00 0.00 0.00 0.00 0.01 0.01 0.08 0.01 0.01 0.01 0.02 0.03 0.02 0.01 0.01 0.01 0.06 0.02 0.01 0.03 0.01 0.02 0.05 0.06 0.02 0.06 0.08 0.09 0.03 0.40 0.08 0.06 0.03 0.09 0.06 0.07 0.07 0.06
0.00 0.00 0.05 0.00 0.01 0.09 0.07 0.01 0.01 0.05 0.00 0.00 0.00 0.01 0.04 0.15 0.11 0.10 0.20 0.09 0.01 0.04 0.24 0.14 0.05 0.09 0.20 0.13 0.13 0.28 0.36 0.41 0.52 0.21 0.10 0.22 0.16 0.08 0.24 0.34 0.13 0.04 0.02 0.01 0.02 0.00 0.00 0.01 0.00 0.00 0.00 0.00 0.00 0.00 0.02 0.00 0.00 0.00 0.00 0.00 0.00 0.00 0.00 0.01 0.01 0.03 0.02 0.01 0.01 0.02 0.05 0.03 0.02 0.03 0.01 0.02 0.03 0.02 0.02 0.03 0.02 0.03 0.05 0.03 0.07 0.06 0.08 0.07 0.06 0.20 0.07 0.04 0.07 0.05 0.11 0.09 0.09
0.00 0.00 0.00 0.04 0.02 0.01 0.00 0.00 0.01 0.00 0.05 0.06 0.03 0.02 0.40 0.08 0.55 0.09 0.17 0.09 0.02 0.01 0.07 0.16 0.02 0.04 0.07 0.19 0.08 0.20 0.58 0.59 0.46 0.30 0.27 0.31 0.22 0.24 0.41 0.33 0.13 0.04 0.02 0.03 0.00 0.01 0.01 0.02 0.02 0.00 0.00 0.00 0.00 0.00 0.00 0.00 0.00 0.00 0.00 0.00 0.00 0.00 0.00 0.01 0.00 0.01 0.02 0.01 0.03 0.02 0.01 0.02 0.04 0.02 0.01 0.01 0.03 0.01 0.01 0.01 0.01 0.03 0.09 0.04 0.03 0.05 0.04 0.04 0.08 0.04 0.06 0.11 0.19 0.09 0.04 0.04 0.04
0.00 0.00 0.00 0.01 0.03 0.01 0.02 0.04 0.00 0.00 0.03 0.09 0.02 0.08 0.11 0.35 0.06 0.30 0.13 0.05 0.05 0.04 0.20 0.11 0.03 0.03 0.12 0.16 0.11 0.19 0.42 0.61 0.50 0.31 0.22 0.16 0.16 0.21 0.17 0.20 0.08 0.04 0.04 0.01 0.03 0.01 0.01 0.01 0.04 0.00 0.01 0.00 0.00 0.00 0.00 0.00 0.00 0.00 0.00 0.00 0.00 0.00 0.00 0.00 0.00 0.00 0.01 0.01 0.02 0.01 0.02 0.02 0.01 0.09 0.02 0.01 0.01 0.00 0.00 0.01 0.01 0.02 0.07 0.07 0.02 0.03 0.06 0.04 0.07 0.03 0.07 0.14 0.10 0.03 0.03 0.03 0.03
0.00 0.00 0.00 0.01 0.02 0.02 0.05 0.01 0.00 0.01 0.00 0.01 0.01 0.05 0.09 0.02 0.11 0.18 0.23 0.26 0.20 0.10 0.07 0.21 0.11 0.04 0.05 0.04 0.11 0.10 0.33 0.34 0.36 0.36 0.31 0.17 0.14 0.34 0.38 0.14 0.10 0.12 0.03 0.02 0.03 0.03 0.03 0.06 0.06 0.03 0.04 0.02 0.01 0.02 0.00 0.00 0.00 0.00 0.00 0.00 0.00 0.00 0.00 0.00 0.00 0.01 0.01 0.01 0.01 0.02 0.03 0.03 0.01 0.01 0.02 0.03 0.02 0.01 0.00 0.03 0.01 0.01 0.02 0.03 0.03 0.03 0.06 0.05 0.09 0.07 0.04 0.05 0.02 0.08 0.06 0.05 0.07
0.00 0.00 0.00 0.00 0.00 0.01 0.02 0.02 0.05 0.01 0.01 0.07 0.02 0.06 0.02 0.10 0.51 0.54 0.32 0.08 0.17 0.25 0.09 0.02 0.17 0.13 0.05 0.05 0.08 0.06 0.13 0.45 0.59 0.58 0.45 0.44 0.42 0.33 0.44 0.28 0.37 0.41 0.17 0.17 0.05 0.09 0.17 0.06 0.18 0.04 0.03 0.06 0.06 0.01 0.00 0.01 0.00 0.00 0.00 0.00 0.00 0.00 0.00 0.00 0.00 0.03 0.02 0.01 0.01 0.01 0.02 0.04 0.02 0.01 0.02 0.03 0.02 0.02 0.02 0.02 0.01 0.01 0.01 0.01 0.02 0.04 0.02 0.03 0.07 0.09 0.05 0.09 0.05 0.08 0.08 0.07 0.08
0.00 0.00 0.00 0.00 0.01 0.05 0.01 0.02 0.05 0.00 0.00 0.06 0.02 0.05 0.06 0.05 0.22 0.04 0.08 0.13 0.10 0.13 0.06 0.08 0.24 0.32 0.15 0.08 0.07 0.06 0.05 0.18 0.82 0.65 0.74 0.36 0.56 0.46 0.59 0.62 1.20 1.71 0.83 0.18 0.27 0.32 0.13 0.12 0.15 0.07 0.06 0.07 0.03 0.02 0.00 0.00 0.00 0.00 0.00 0.03 0.00 0.00 0.00 0.00 0.00 0.01 0.01 0.02 0.02 0.02 0.04 0.01 0.02 0.01 0.01 0.04 0.01 0.01 0.02 0.00 0.00 0.01 0.02 0.01 0.01 0.01 0.02 0.03 0.04 0.03 0.04 0.07 0.07 0.04 0.04 0.05 0.04
0.00 0.00 0.00 0.00 0.00 0.00 0.02 0.01 0.04 0.00 0.07 0.00 0.37 0.41 0.31 0.14 0.28 0.30 0.19 0.29 0.22 0.41 0.25 0.20 0.26 0.50 0.11 0.03 0.05 0.06 0.09 0.26 0.43 0.40 1.44 1.63 1.65 1.47 1.08 0.79 1.63 1.54 1.04 0.66 0.61 0.34 0.26 0.36 0.17 0.22 0.75 0.59 0.14 0.05 0.01 0.00 0.01 0.00 0.00 0.00 0.00 0.00 0.00 0.00 0.00 0.01 0.02 0.02 0.02 0.01 0.02 0.03 0.03 0.01 0.00 0.01 0.01 0.03 0.01 0.04 0.02 0.00 0.01 0.03 0.04 0.01 0.02 0.02 0.03 0.02 0.01 0.01 0.03 0.03 0.04 0.04 0.03
0.00 0.00 0.00 0.00 0.00 0.00 0.00 0.00 0.00 0.01 0.04 0.01 0.05 0.24 0.33 0.63 0.73 0.61 0.68 1.00 0.53 0.76 0.33 0.28 0.39 0.26 0.11 0.08 0.09 0.08 0.09 0.19 0.26 0.53 0.81 1.11 1.19 0.84 0.93 1.48 2.47 1.67 1.00 1.10 0.93 1.02 1.19 1.24 0.60 0.72 1.62 0.96 0.50 0.34 0.16 0.05 0.00 0.00 0.00 0.00 0.00 0.00 0.00 0.00 0.00 0.00 0.00 0.01 0.02 0.01 0.01 0.04 0.01 0.01 0.02 0.01 0.01 0.01 0.02 0.03 0.02 0.00 0.02 0.04 0.01 0.04 0.01 0.03 0.02 0.03 0.02 0.01 0.05 0.07 0.04 0.02 0.01
0.00 0.00 0.00 0.00 0.00 0.00 0.00 0.00 0.00 0.00 0.00 0.00 0.02 0.11 0.18 0.28 0.25 0.58 1.31 0.45 0.63 0.90 0.12 0.37 0.32 0.23 0.15 0.08 0.14 0.19 0.20 0.15 0.20 0.48 0.73 0.59 1.30 1.18 0.95 0.84 0.55 1.37 0.73 0.93 1.39 1.72 2.04 1.49 1.45 1.59 1.87 1.01 0.95 0.45 0.40 0.43 0.11 0.01 0.00 0.00 0.00 0.00 0.00 0.00 0.00 0.00 0.00 0.00 0.00 0.01 0.01 0.01 0.02 0.01 0.04 0.06 0.04 0.00 0.02 0.01 0.01 0.01 0.04 0.05 0.01 0.01 0.01 0.03 0.02 0.01 0.01 0.02 0.03 0.01 0.02 0.00 0.00